Year,Month,Day,Hour,Minute,Value (Times are PST for temperature in C)
2021,08,11,00,00,18.80
2021,08,11,00,01,18.80
2021,08,11,00,02,18.70
2021,08,11,00,03,18.70
2021,08,11,00,04,18.70
2021,08,11,00,05,18.70
2021,08,11,00,06,18.70
2021,08,11,00,07,18.70
2021,08,11,00,08,18.70
2021,08,11,00,09,18.70
2021,08,11,00,10,18.70
2021,08,11,00,11,18.70
2021,08,11,00,12,18.70
2021,08,11,00,13,18.70
2021,08,11,00,14,18.70
2021,08,11,00,15,18.70
2021,08,11,00,16,18.70
2021,08,11,00,17,18.70
2021,08,11,00,18,18.70
2021,08,11,00,19,18.70
2021,08,11,00,20,18.60
2021,08,11,00,21,18.60
2021,08,11,00,22,18.60
2021,08,11,00,23,18.60
2021,08,11,00,24,18.60
2021,08,11,00,25,18.60
2021,08,11,00,26,18.60
2021,08,11,00,27,18.60
2021,08,11,00,28,18.60
2021,08,11,00,29,18.60
2021,08,11,00,30,18.60
2021,08,11,00,31,18.60
2021,08,11,00,32,18.60
2021,08,11,00,33,18.60
2021,08,11,00,34,18.60
2021,08,11,00,35,18.60
2021,08,11,00,36,18.60
2021,08,11,00,37,18.60
2021,08,11,00,38,18.60
2021,08,11,00,39,18.60
2021,08,11,00,40,18.60
2021,08,11,00,41,18.60
2021,08,11,00,42,18.60
2021,08,11,00,43,18.60
2021,08,11,00,44,18.60
2021,08,11,00,45,18.60
2021,08,11,00,46,18.50
2021,08,11,00,47,18.60
2021,08,11,00,48,18.60
2021,08,11,00,49,18.60
2021,08,11,00,50,18.60
2021,08,11,00,51,18.60
2021,08,11,00,52,18.60
2021,08,11,00,53,18.60
2021,08,11,00,54,18.60
2021,08,11,00,55,18.60
2021,08,11,00,56,18.60
2021,08,11,00,57,18.60
2021,08,11,00,58,18.60
2021,08,11,00,59,18.60
2021,08,11,01,00,18.60
2021,08,11,01,01,18.60
2021,08,11,01,02,18.50
2021,08,11,01,03,18.50
2021,08,11,01,04,18.50
2021,08,11,01,05,18.50
2021,08,11,01,06,18.40
2021,08,11,01,07,18.50
2021,08,11,01,08,18.40
2021,08,11,01,09,18.50
2021,08,11,01,10,18.50
2021,08,11,01,11,18.50
2021,08,11,01,12,18.50
2021,08,11,01,13,18.50
2021,08,11,01,14,18.50
2021,08,11,01,15,18.50
2021,08,11,01,16,18.50
2021,08,11,01,17,18.50
2021,08,11,01,18,18.50
2021,08,11,01,19,18.50
2021,08,11,01,20,18.50
2021,08,11,01,21,18.50
2021,08,11,01,22,18.40
2021,08,11,01,23,18.40
2021,08,11,01,24,18.40
2021,08,11,01,25,18.40
2021,08,11,01,26,18.40
2021,08,11,01,27,18.30
2021,08,11,01,28,18.30
2021,08,11,01,29,18.30
2021,08,11,01,30,18.30
2021,08,11,01,31,18.30
2021,08,11,01,32,18.30
2021,08,11,01,33,18.30
2021,08,11,01,34,18.20
2021,08,11,01,35,18.20
2021,08,11,01,36,18.20
2021,08,11,01,37,18.20
2021,08,11,01,38,18.20
2021,08,11,01,39,18.20
2021,08,11,01,40,18.20
2021,08,11,01,41,18.20
2021,08,11,01,42,18.20
2021,08,11,01,43,18.20
2021,08,11,01,44,18.20
2021,08,11,01,45,18.20
2021,08,11,01,46,18.20
2021,08,11,01,47,18.20
2021,08,11,01,48,18.20
2021,08,11,01,49,18.20
2021,08,11,01,50,18.20
2021,08,11,01,51,18.20
2021,08,11,01,52,18.20
2021,08,11,01,53,18.30
2021,08,11,01,54,18.30
2021,08,11,01,55,18.30
2021,08,11,01,56,18.40
2021,08,11,01,57,18.40
2021,08,11,01,58,18.40
2021,08,11,01,59,18.40
2021,08,11,02,00,18.30
2021,08,11,02,01,18.30
2021,08,11,02,02,18.40
2021,08,11,02,03,18.40
2021,08,11,02,04,18.40
2021,08,11,02,05,18.40
2021,08,11,02,06,18.30
2021,08,11,02,07,18.40
2021,08,11,02,08,18.40
2021,08,11,02,09,18.40
2021,08,11,02,10,18.40
2021,08,11,02,11,18.40
2021,08,11,02,12,18.40
2021,08,11,02,13,18.40
2021,08,11,02,14,18.40
2021,08,11,02,15,18.40
2021,08,11,02,16,18.40
2021,08,11,02,17,18.40
2021,08,11,02,18,18.40
2021,08,11,02,19,18.40
2021,08,11,02,20,18.40
2021,08,11,02,21,18.40
2021,08,11,02,22,18.40
2021,08,11,02,23,18.40
2021,08,11,02,24,18.40
2021,08,11,02,25,18.40
2021,08,11,02,26,18.40
2021,08,11,02,27,18.40
2021,08,11,02,28,18.40
2021,08,11,02,29,18.40
2021,08,11,02,30,18.40
2021,08,11,02,31,18.40
2021,08,11,02,32,18.40
2021,08,11,02,33,18.40
2021,08,11,02,34,18.30
2021,08,11,02,35,18.30
2021,08,11,02,36,18.30
2021,08,11,02,37,18.30
2021,08,11,02,38,18.30
2021,08,11,02,39,18.30
2021,08,11,02,40,18.30
2021,08,11,02,41,18.30
2021,08,11,02,42,18.30
2021,08,11,02,43,18.30
2021,08,11,02,44,18.30
2021,08,11,02,45,18.30
2021,08,11,02,46,18.40
2021,08,11,02,47,18.40
2021,08,11,02,48,18.40
2021,08,11,02,49,18.40
2021,08,11,02,50,18.40
2021,08,11,02,51,18.50
2021,08,11,02,52,18.50
2021,08,11,02,53,18.60
2021,08,11,02,54,18.60
2021,08,11,02,55,18.60
2021,08,11,02,56,18.60
2021,08,11,02,57,18.60
2021,08,11,02,58,18.60
2021,08,11,02,59,18.60
2021,08,11,03,00,18.60
2021,08,11,03,01,18.60
2021,08,11,03,02,18.60
2021,08,11,03,03,18.60
2021,08,11,03,04,18.60
2021,08,11,03,05,18.50
2021,08,11,03,06,18.60
2021,08,11,03,07,18.60
2021,08,11,03,08,18.60
2021,08,11,03,09,18.60
2021,08,11,03,10,18.70
2021,08,11,03,11,18.70
2021,08,11,03,12,18.70
2021,08,11,03,13,18.70
2021,08,11,03,14,18.70
2021,08,11,03,15,18.80
2021,08,11,03,16,18.80
2021,08,11,03,17,18.80
2021,08,11,03,18,18.80
2021,08,11,03,19,18.80
2021,08,11,03,20,18.80
2021,08,11,03,21,18.80
2021,08,11,03,22,18.80
2021,08,11,03,23,18.80
2021,08,11,03,24,18.80
2021,08,11,03,25,18.70
2021,08,11,03,26,18.70
2021,08,11,03,27,18.70
2021,08,11,03,28,18.60
2021,08,11,03,29,18.60
2021,08,11,03,30,18.50
2021,08,11,03,31,18.50
2021,08,11,03,32,18.50
2021,08,11,03,33,18.50
2021,08,11,03,34,18.50
2021,08,11,03,35,18.50
2021,08,11,03,36,18.50
2021,08,11,03,37,18.50
2021,08,11,03,38,18.50
2021,08,11,03,39,18.50
2021,08,11,03,40,18.50
2021,08,11,03,41,18.40
2021,08,11,03,42,18.40
2021,08,11,03,43,18.40
2021,08,11,03,44,18.40
2021,08,11,03,45,18.30
2021,08,11,03,46,18.30
2021,08,11,03,47,18.30
2021,08,11,03,48,18.30
2021,08,11,03,49,18.30
2021,08,11,03,50,18.30
2021,08,11,03,51,18.40
2021,08,11,03,52,18.50
2021,08,11,03,53,18.50
2021,08,11,03,54,18.60
2021,08,11,03,55,18.70
2021,08,11,03,56,18.80
2021,08,11,03,57,18.80
2021,08,11,03,58,18.90
2021,08,11,03,59,18.90
2021,08,11,04,00,18.90
2021,08,11,04,01,19.00
2021,08,11,04,02,19.00
2021,08,11,04,03,18.90
2021,08,11,04,04,18.90
2021,08,11,04,05,18.90
2021,08,11,04,06,18.90
2021,08,11,04,07,18.90
2021,08,11,04,08,18.90
2021,08,11,04,09,18.90
2021,08,11,04,10,18.90
2021,08,11,04,11,18.90
2021,08,11,04,12,19.00
2021,08,11,04,13,19.10
2021,08,11,04,14,19.10
2021,08,11,04,15,19.10
2021,08,11,04,16,19.10
2021,08,11,04,17,19.20
2021,08,11,04,18,19.20
2021,08,11,04,19,19.20
2021,08,11,04,20,19.20
2021,08,11,04,21,19.20
2021,08,11,04,22,19.20
2021,08,11,04,23,19.20
2021,08,11,04,24,19.20
2021,08,11,04,25,19.20
2021,08,11,04,26,19.30
2021,08,11,04,27,19.30
2021,08,11,04,28,19.20
2021,08,11,04,29,19.20
2021,08,11,04,30,19.20
2021,08,11,04,31,19.20
2021,08,11,04,32,19.20
2021,08,11,04,33,19.10
2021,08,11,04,34,19.10
2021,08,11,04,35,19.00
2021,08,11,04,36,19.00
2021,08,11,04,37,19.00
2021,08,11,04,38,19.00
2021,08,11,04,39,19.10
2021,08,11,04,40,19.10
2021,08,11,04,41,19.10
2021,08,11,04,42,19.10
2021,08,11,04,43,19.10
2021,08,11,04,44,19.20
2021,08,11,04,45,19.30
2021,08,11,04,46,19.30
2021,08,11,04,47,19.40
2021,08,11,04,48,19.40
2021,08,11,04,49,19.40
2021,08,11,04,50,19.40
2021,08,11,04,51,19.40
2021,08,11,04,52,19.40
2021,08,11,04,53,19.40
2021,08,11,04,54,19.40
2021,08,11,04,55,19.40
2021,08,11,04,56,19.40
2021,08,11,04,57,19.40
2021,08,11,04,58,19.40
2021,08,11,04,59,19.40
2021,08,11,05,00,19.40
2021,08,11,05,01,19.40
2021,08,11,05,02,19.50
2021,08,11,05,03,19.50
2021,08,11,05,04,19.60
2021,08,11,05,05,19.70
2021,08,11,05,06,19.90
2021,08,11,05,07,20.00
2021,08,11,05,08,20.00
2021,08,11,05,09,20.10
2021,08,11,05,10,20.20
2021,08,11,05,11,20.20
2021,08,11,05,12,20.30
2021,08,11,05,13,20.30
2021,08,11,05,14,20.40
2021,08,11,05,15,20.40
2021,08,11,05,16,20.50
2021,08,11,05,17,20.60
2021,08,11,05,18,20.70
2021,08,11,05,19,20.70
2021,08,11,05,20,20.80
2021,08,11,05,21,20.90
2021,08,11,05,22,20.90
2021,08,11,05,23,20.90
2021,08,11,05,24,20.90
2021,08,11,05,25,20.90
2021,08,11,05,26,20.90
2021,08,11,05,27,21.00
2021,08,11,05,28,20.90
2021,08,11,05,29,21.00
2021,08,11,05,30,21.00
2021,08,11,05,31,21.00
2021,08,11,05,32,21.00
2021,08,11,05,33,21.00
2021,08,11,05,34,21.00
2021,08,11,05,35,21.00
2021,08,11,05,36,21.00
2021,08,11,05,37,21.10
2021,08,11,05,38,21.10
2021,08,11,05,39,21.10
2021,08,11,05,40,21.10
2021,08,11,05,41,21.10
2021,08,11,05,42,21.20
2021,08,11,05,43,21.20
2021,08,11,05,44,21.20
2021,08,11,05,45,21.20
2021,08,11,05,46,21.20
2021,08,11,05,47,21.20
2021,08,11,05,48,21.20
2021,08,11,05,49,21.30
2021,08,11,05,50,21.40
2021,08,11,05,51,21.50
2021,08,11,05,52,21.50
2021,08,11,05,53,21.50
2021,08,11,05,54,21.50
2021,08,11,05,55,21.50
2021,08,11,05,56,21.50
2021,08,11,05,57,21.60
2021,08,11,05,58,21.60
2021,08,11,05,59,21.60
2021,08,11,06,00,21.60
2021,08,11,06,01,21.60
2021,08,11,06,02,21.60
2021,08,11,06,03,21.60
2021,08,11,06,04,21.60
2021,08,11,06,05,21.60
2021,08,11,06,06,21.60
2021,08,11,06,07,21.60
2021,08,11,06,08,21.70
2021,08,11,06,09,21.70
2021,08,11,06,10,21.70
2021,08,11,06,11,21.70
2021,08,11,06,12,21.70
2021,08,11,06,13,21.80
2021,08,11,06,14,21.80
2021,08,11,06,15,21.80
2021,08,11,06,16,21.80
2021,08,11,06,17,21.70
2021,08,11,06,18,21.70
2021,08,11,06,19,21.70
2021,08,11,06,20,21.70
2021,08,11,06,21,21.70
2021,08,11,06,22,21.70
2021,08,11,06,23,21.70
2021,08,11,06,24,21.70
2021,08,11,06,25,21.80
2021,08,11,06,26,21.80
2021,08,11,06,27,21.80
2021,08,11,06,28,21.80
2021,08,11,06,29,21.80
2021,08,11,06,30,21.80
2021,08,11,06,31,21.80
2021,08,11,06,32,21.70
2021,08,11,06,33,21.70
2021,08,11,06,34,21.80
2021,08,11,06,35,21.80
2021,08,11,06,36,21.70
2021,08,11,06,37,21.70
2021,08,11,06,38,21.70
2021,08,11,06,39,21.70
2021,08,11,06,40,21.70
2021,08,11,06,41,21.70
2021,08,11,06,42,21.70
2021,08,11,06,43,21.70
2021,08,11,06,44,21.60
2021,08,11,06,45,21.60
2021,08,11,06,46,21.60
2021,08,11,06,47,21.60
2021,08,11,06,48,21.60
2021,08,11,06,49,21.60
2021,08,11,06,50,21.60
2021,08,11,06,51,21.60
2021,08,11,06,52,21.60
2021,08,11,06,53,21.70
2021,08,11,06,54,21.70
2021,08,11,06,55,21.70
2021,08,11,06,56,21.70
2021,08,11,06,57,21.80
2021,08,11,06,58,21.80
2021,08,11,06,59,21.90
2021,08,11,07,00,21.90
2021,08,11,07,01,22.00
2021,08,11,07,02,22.00
2021,08,11,07,03,22.00
2021,08,11,07,04,22.10
2021,08,11,07,05,22.10
2021,08,11,07,06,22.10
2021,08,11,07,07,22.20
2021,08,11,07,08,22.20
2021,08,11,07,09,22.30
2021,08,11,07,10,22.30
2021,08,11,07,11,22.30
2021,08,11,07,12,22.30
2021,08,11,07,13,22.30
2021,08,11,07,14,22.30
2021,08,11,07,15,22.30
2021,08,11,07,16,22.30
2021,08,11,07,17,22.30
2021,08,11,07,18,22.40
2021,08,11,07,19,22.40
2021,08,11,07,20,22.50
2021,08,11,07,21,22.60
2021,08,11,07,22,22.60
2021,08,11,07,23,22.60
2021,08,11,07,24,22.70
2021,08,11,07,25,22.70
2021,08,11,07,26,22.60
2021,08,11,07,27,22.60
2021,08,11,07,28,22.60
2021,08,11,07,29,22.60
2021,08,11,07,30,22.50
2021,08,11,07,31,22.50
2021,08,11,07,32,22.40
2021,08,11,07,33,22.40
2021,08,11,07,34,22.40
2021,08,11,07,35,22.40
2021,08,11,07,36,22.40
2021,08,11,07,37,22.40
2021,08,11,07,38,22.50
2021,08,11,07,39,22.50
2021,08,11,07,40,22.50
2021,08,11,07,41,22.60
2021,08,11,07,42,22.60
2021,08,11,07,43,22.60
2021,08,11,07,44,22.60
2021,08,11,07,45,22.60
2021,08,11,07,46,22.60
2021,08,11,07,47,22.60
2021,08,11,07,48,22.60
2021,08,11,07,49,22.60
2021,08,11,07,50,22.60
2021,08,11,07,51,22.70
2021,08,11,07,52,22.70
2021,08,11,07,53,22.70
2021,08,11,07,54,22.70
2021,08,11,07,55,22.70
2021,08,11,07,56,22.70
2021,08,11,07,57,22.70
2021,08,11,07,58,22.70
2021,08,11,07,59,22.70
2021,08,11,08,00,22.60
2021,08,11,08,01,22.60
2021,08,11,08,02,22.60
2021,08,11,08,03,22.60
2021,08,11,08,04,22.60
2021,08,11,08,05,22.60
2021,08,11,08,06,22.60
2021,08,11,08,07,22.70
2021,08,11,08,08,22.70
2021,08,11,08,09,22.80
2021,08,11,08,10,22.80
2021,08,11,08,11,22.80
2021,08,11,08,12,22.80
2021,08,11,08,13,22.80
2021,08,11,08,14,22.80
2021,08,11,08,15,22.80
2021,08,11,08,16,22.80
2021,08,11,08,17,22.80
2021,08,11,08,18,22.70
2021,08,11,08,19,22.70
2021,08,11,08,20,22.70
2021,08,11,08,21,22.70
2021,08,11,08,22,22.70
2021,08,11,08,23,22.70
2021,08,11,08,24,22.70
2021,08,11,08,25,22.70
2021,08,11,08,26,22.70
2021,08,11,08,27,22.60
2021,08,11,08,28,22.60
2021,08,11,08,29,22.60
2021,08,11,08,30,22.50
2021,08,11,08,31,22.40
2021,08,11,08,32,22.30
2021,08,11,08,33,22.30
2021,08,11,08,34,22.40
2021,08,11,08,35,22.40
2021,08,11,08,36,22.40
2021,08,11,08,37,22.50
2021,08,11,08,38,22.60
2021,08,11,08,39,22.60
2021,08,11,08,40,22.70
2021,08,11,08,41,22.70
2021,08,11,08,42,22.60
2021,08,11,08,43,22.70
2021,08,11,08,44,22.70
2021,08,11,08,45,22.70
2021,08,11,08,46,22.70
2021,08,11,08,47,22.70
2021,08,11,08,48,22.70
2021,08,11,08,49,22.80
2021,08,11,08,50,22.80
2021,08,11,08,51,22.70
2021,08,11,08,52,22.70
2021,08,11,08,53,22.70
2021,08,11,08,54,22.70
2021,08,11,08,55,22.70
2021,08,11,08,56,22.70
2021,08,11,08,57,22.70
2021,08,11,08,58,22.80
2021,08,11,08,59,22.80
2021,08,11,09,00,22.80
2021,08,11,09,01,22.70
2021,08,11,09,02,22.70
2021,08,11,09,03,22.70
2021,08,11,09,04,22.70
2021,08,11,09,05,22.80
2021,08,11,09,06,22.80
2021,08,11,09,07,22.80
2021,08,11,09,08,22.80
2021,08,11,09,09,22.80
2021,08,11,09,10,22.80
2021,08,11,09,11,22.90
2021,08,11,09,12,22.90
2021,08,11,09,13,23.00
2021,08,11,09,14,23.10
2021,08,11,09,15,23.20
2021,08,11,09,16,23.20
2021,08,11,09,17,23.20
2021,08,11,09,18,23.30
2021,08,11,09,19,23.30
2021,08,11,09,20,23.40
2021,08,11,09,21,23.50
2021,08,11,09,22,23.60
2021,08,11,09,23,23.60
2021,08,11,09,24,23.70
2021,08,11,09,25,23.70
2021,08,11,09,26,23.70
2021,08,11,09,27,23.70
2021,08,11,09,28,23.70
2021,08,11,09,29,23.70
2021,08,11,09,30,23.80
2021,08,11,09,31,23.80
2021,08,11,09,32,23.80
2021,08,11,09,33,23.80
2021,08,11,09,34,23.90
2021,08,11,09,35,24.00
2021,08,11,09,36,24.00
2021,08,11,09,37,23.90
2021,08,11,09,38,23.90
2021,08,11,09,39,24.00
2021,08,11,09,40,24.10
2021,08,11,09,41,24.10
2021,08,11,09,42,24.10
2021,08,11,09,43,24.10
2021,08,11,09,44,23.90
2021,08,11,09,45,23.80
2021,08,11,09,46,23.70
2021,08,11,09,47,23.60
2021,08,11,09,48,23.50
2021,08,11,09,49,23.50
2021,08,11,09,50,23.50
2021,08,11,09,51,23.50
2021,08,11,09,52,23.50
2021,08,11,09,53,23.50
2021,08,11,09,54,23.60
2021,08,11,09,55,23.50
2021,08,11,09,56,23.50
2021,08,11,09,57,23.60
2021,08,11,09,58,23.50
2021,08,11,09,59,23.50
2021,08,11,10,00,23.50
2021,08,11,10,01,23.60
2021,08,11,10,02,23.70
2021,08,11,10,03,23.80
2021,08,11,10,04,24.00
2021,08,11,10,05,24.10
2021,08,11,10,06,24.10
2021,08,11,10,07,24.20
2021,08,11,10,08,24.20
2021,08,11,10,09,24.30
2021,08,11,10,10,24.30
2021,08,11,10,11,24.30
2021,08,11,10,12,24.30
2021,08,11,10,13,24.40
2021,08,11,10,14,24.40
2021,08,11,10,15,24.30
2021,08,11,10,16,24.30
2021,08,11,10,17,24.30
2021,08,11,10,18,24.30
2021,08,11,10,19,24.20
2021,08,11,10,20,24.20
2021,08,11,10,21,24.20
2021,08,11,10,22,24.20
2021,08,11,10,23,24.20
2021,08,11,10,24,24.20
2021,08,11,10,25,24.30
2021,08,11,10,26,24.30
2021,08,11,10,27,24.30
2021,08,11,10,28,24.40
2021,08,11,10,29,24.40
2021,08,11,10,30,24.30
2021,08,11,10,31,24.30
2021,08,11,10,32,24.40
2021,08,11,10,33,24.40
2021,08,11,10,34,24.40
2021,08,11,10,35,24.40
2021,08,11,10,36,24.40
2021,08,11,10,37,24.50
2021,08,11,10,38,24.50
2021,08,11,10,39,24.60
2021,08,11,10,40,24.70
2021,08,11,10,41,24.80
2021,08,11,10,42,24.70
2021,08,11,10,43,24.70
2021,08,11,10,44,24.70
2021,08,11,10,45,24.80
2021,08,11,10,46,24.80
2021,08,11,10,47,24.80
2021,08,11,10,48,24.80
2021,08,11,10,49,24.80
2021,08,11,10,50,24.90
2021,08,11,10,51,25.00
2021,08,11,10,52,25.10
2021,08,11,10,53,25.20
2021,08,11,10,54,25.20
2021,08,11,10,55,25.10
2021,08,11,10,56,25.10
2021,08,11,10,57,25.10
2021,08,11,10,58,25.20
2021,08,11,10,59,25.20
2021,08,11,11,00,25.20
2021,08,11,11,01,25.30
2021,08,11,11,02,25.30
2021,08,11,11,03,25.30
2021,08,11,11,04,25.30
2021,08,11,11,05,25.30
2021,08,11,11,06,25.30
2021,08,11,11,07,25.30
2021,08,11,11,08,25.30
2021,08,11,11,09,25.30
2021,08,11,11,10,25.30
2021,08,11,11,11,25.30
2021,08,11,11,12,25.20
2021,08,11,11,13,25.30
2021,08,11,11,14,25.30
2021,08,11,11,15,25.30
2021,08,11,11,16,25.30
2021,08,11,11,17,25.40
2021,08,11,11,18,25.50
2021,08,11,11,19,25.50
2021,08,11,11,20,25.40
2021,08,11,11,21,25.30
2021,08,11,11,22,25.30
2021,08,11,11,23,25.30
2021,08,11,11,24,25.30
2021,08,11,11,25,25.30
2021,08,11,11,26,25.30
2021,08,11,11,27,25.20
2021,08,11,11,28,25.20
2021,08,11,11,29,25.30
2021,08,11,11,30,25.30
2021,08,11,11,31,25.30
2021,08,11,11,32,25.30
2021,08,11,11,33,25.30
2021,08,11,11,34,25.40
2021,08,11,11,35,25.40
2021,08,11,11,36,25.60
2021,08,11,11,37,25.70
2021,08,11,11,38,25.80
2021,08,11,11,39,25.90
2021,08,11,11,40,26.00
2021,08,11,11,41,26.10
2021,08,11,11,42,26.30
2021,08,11,11,43,26.20
2021,08,11,11,44,25.90
2021,08,11,11,45,25.80
2021,08,11,11,46,25.80
2021,08,11,11,47,25.90
2021,08,11,11,48,25.90
2021,08,11,11,49,25.90
2021,08,11,11,50,25.90
2021,08,11,11,51,25.80
2021,08,11,11,52,25.80
2021,08,11,11,53,25.70
2021,08,11,11,54,25.60
2021,08,11,11,55,25.50
2021,08,11,11,56,25.40
2021,08,11,11,57,25.30
2021,08,11,11,58,25.40
2021,08,11,11,59,25.30
2021,08,11,12,00,25.30
2021,08,11,12,01,25.30
2021,08,11,12,02,25.20
2021,08,11,12,03,25.30
2021,08,11,12,04,25.40
2021,08,11,12,05,25.30
2021,08,11,12,06,25.40
2021,08,11,12,07,25.40
2021,08,11,12,08,25.30
2021,08,11,12,09,25.20
2021,08,11,12,10,25.30
2021,08,11,12,11,25.30
2021,08,11,12,12,25.30
2021,08,11,12,13,25.30
2021,08,11,12,14,25.30
2021,08,11,12,15,25.30
2021,08,11,12,16,25.50
2021,08,11,12,17,25.70
2021,08,11,12,18,25.70
2021,08,11,12,19,25.70
2021,08,11,12,20,25.70
2021,08,11,12,21,25.70
2021,08,11,12,22,25.70
2021,08,11,12,23,25.60
2021,08,11,12,24,25.60
2021,08,11,12,25,25.50
2021,08,11,12,26,25.50
2021,08,11,12,27,25.50
2021,08,11,12,28,25.60
2021,08,11,12,29,25.70
2021,08,11,12,30,25.80
2021,08,11,12,31,25.80
2021,08,11,12,32,25.70
2021,08,11,12,33,25.70
2021,08,11,12,34,25.70
2021,08,11,12,35,25.70
2021,08,11,12,36,25.70
2021,08,11,12,37,25.70
2021,08,11,12,38,25.70
2021,08,11,12,39,25.70
2021,08,11,12,40,25.80
2021,08,11,12,41,25.90
2021,08,11,12,42,26.00
2021,08,11,12,43,26.00
2021,08,11,12,44,26.00
2021,08,11,12,45,26.00
2021,08,11,12,46,26.10
2021,08,11,12,47,26.10
2021,08,11,12,48,26.00
2021,08,11,12,49,26.00
2021,08,11,12,50,25.90
2021,08,11,12,51,25.90
2021,08,11,12,52,25.90
2021,08,11,12,53,26.00
2021,08,11,12,54,26.10
2021,08,11,12,55,26.20
2021,08,11,12,56,26.20
2021,08,11,12,57,26.20
2021,08,11,12,58,26.20
2021,08,11,12,59,26.30
2021,08,11,13,00,26.30
2021,08,11,13,01,26.50
2021,08,11,13,02,26.60
2021,08,11,13,03,26.60
2021,08,11,13,04,26.50
2021,08,11,13,05,26.40
2021,08,11,13,06,26.50
2021,08,11,13,07,26.60
2021,08,11,13,08,26.70
2021,08,11,13,09,26.80
2021,08,11,13,10,26.80
2021,08,11,13,11,26.90
2021,08,11,13,12,27.00
2021,08,11,13,13,27.00
2021,08,11,13,14,27.10
2021,08,11,13,15,27.10
2021,08,11,13,16,27.20
2021,08,11,13,17,27.30
2021,08,11,13,18,27.30
2021,08,11,13,19,27.20
2021,08,11,13,20,27.30
2021,08,11,13,21,27.20
2021,08,11,13,22,27.10
2021,08,11,13,23,26.90
2021,08,11,13,24,26.90
2021,08,11,13,25,26.90
2021,08,11,13,26,27.00
2021,08,11,13,27,27.10
2021,08,11,13,28,27.20
2021,08,11,13,29,27.20
2021,08,11,13,30,27.20
2021,08,11,13,31,27.20
2021,08,11,13,32,27.20
2021,08,11,13,33,27.20
2021,08,11,13,34,27.30
2021,08,11,13,35,27.40
2021,08,11,13,36,27.30
2021,08,11,13,37,27.30
2021,08,11,13,38,27.30
2021,08,11,13,39,27.30
2021,08,11,13,40,27.20
2021,08,11,13,41,27.20
2021,08,11,13,42,27.20
2021,08,11,13,43,27.10
2021,08,11,13,44,27.10
2021,08,11,13,45,27.10
2021,08,11,13,46,27.20
2021,08,11,13,47,27.20
2021,08,11,13,48,27.30
2021,08,11,13,49,27.30
2021,08,11,13,50,27.40
2021,08,11,13,51,27.30
2021,08,11,13,52,27.40
2021,08,11,13,53,27.40
2021,08,11,13,54,27.50
2021,08,11,13,55,27.50
2021,08,11,13,56,27.40
2021,08,11,13,57,27.40
2021,08,11,13,58,27.40
2021,08,11,13,59,27.40
2021,08,11,14,00,27.40
2021,08,11,14,01,27.40
2021,08,11,14,02,27.40
2021,08,11,14,03,27.40
2021,08,11,14,04,27.40
2021,08,11,14,05,27.50
2021,08,11,14,06,27.60
2021,08,11,14,07,27.60
2021,08,11,14,08,27.70
2021,08,11,14,09,27.70
2021,08,11,14,10,27.70
2021,08,11,14,11,27.80
2021,08,11,14,12,27.80
2021,08,11,14,13,27.90
2021,08,11,14,14,27.90
2021,08,11,14,15,28.00
2021,08,11,14,16,28.00
2021,08,11,14,17,28.00
2021,08,11,14,18,28.00
2021,08,11,14,19,28.00
2021,08,11,14,20,28.10
2021,08,11,14,21,28.30
2021,08,11,14,22,28.40
2021,08,11,14,23,28.50
2021,08,11,14,24,28.60
2021,08,11,14,25,28.60
2021,08,11,14,26,28.50
2021,08,11,14,27,28.40
2021,08,11,14,28,28.30
2021,08,11,14,29,28.30
2021,08,11,14,30,28.30
2021,08,11,14,31,28.40
2021,08,11,14,32,28.50
2021,08,11,14,33,28.60
2021,08,11,14,34,28.50
2021,08,11,14,35,28.50
2021,08,11,14,36,28.60
2021,08,11,14,37,28.70
2021,08,11,14,38,28.80
2021,08,11,14,39,28.80
2021,08,11,14,40,28.60
2021,08,11,14,41,28.50
2021,08,11,14,42,28.50
2021,08,11,14,43,28.40
2021,08,11,14,44,28.50
2021,08,11,14,45,28.70
2021,08,11,14,46,28.80
2021,08,11,14,47,29.00
2021,08,11,14,48,29.00
2021,08,11,14,49,28.90
2021,08,11,14,50,28.90
2021,08,11,14,51,28.90
2021,08,11,14,52,28.70
2021,08,11,14,53,28.60
2021,08,11,14,54,28.60
2021,08,11,14,55,28.50
2021,08,11,14,56,28.50
2021,08,11,14,57,28.40
2021,08,11,14,58,28.40
2021,08,11,14,59,28.40
2021,08,11,15,00,28.40
2021,08,11,15,01,28.40
2021,08,11,15,02,28.30
2021,08,11,15,03,28.40
2021,08,11,15,04,28.40
2021,08,11,15,05,28.40
2021,08,11,15,06,28.50
2021,08,11,15,07,28.50
2021,08,11,15,08,28.50
2021,08,11,15,09,28.40
2021,08,11,15,10,28.30
2021,08,11,15,11,28.40
2021,08,11,15,12,28.40
2021,08,11,15,13,28.40
2021,08,11,15,14,28.50
2021,08,11,15,15,28.50
2021,08,11,15,16,28.50
2021,08,11,15,17,28.40
2021,08,11,15,18,28.50
2021,08,11,15,19,28.60
2021,08,11,15,20,28.50
2021,08,11,15,21,28.40
2021,08,11,15,22,28.40
2021,08,11,15,23,28.50
2021,08,11,15,24,28.60
2021,08,11,15,25,28.70
2021,08,11,15,26,28.80
2021,08,11,15,27,29.00
2021,08,11,15,28,29.00
2021,08,11,15,29,29.00
2021,08,11,15,30,29.00
2021,08,11,15,31,29.00
2021,08,11,15,32,29.00
2021,08,11,15,33,29.10
2021,08,11,15,34,29.20
2021,08,11,15,35,29.20
2021,08,11,15,36,29.30
2021,08,11,15,37,29.20
2021,08,11,15,38,29.30
2021,08,11,15,39,29.10
2021,08,11,15,40,29.10
2021,08,11,15,41,29.10
2021,08,11,15,42,29.20
2021,08,11,15,43,29.20
2021,08,11,15,44,29.10
2021,08,11,15,45,29.10
2021,08,11,15,46,29.20
2021,08,11,15,47,29.20
2021,08,11,15,48,29.20
2021,08,11,15,49,29.10
2021,08,11,15,50,29.10
2021,08,11,15,51,29.00
2021,08,11,15,52,29.00
2021,08,11,15,53,28.90
2021,08,11,15,54,28.90
2021,08,11,15,55,28.90
2021,08,11,15,56,28.80
2021,08,11,15,57,28.80
2021,08,11,15,58,28.80
2021,08,11,15,59,28.90
2021,08,11,16,00,29.00
2021,08,11,16,01,29.10
2021,08,11,16,02,29.20
2021,08,11,16,03,29.30
2021,08,11,16,04,29.40
2021,08,11,16,05,29.40
2021,08,11,16,06,29.40
2021,08,11,16,07,29.50
2021,08,11,16,08,29.60
2021,08,11,16,09,29.70
2021,08,11,16,10,29.80
2021,08,11,16,11,29.80
2021,08,11,16,12,29.70
2021,08,11,16,13,29.60
2021,08,11,16,14,29.60
2021,08,11,16,15,29.50
2021,08,11,16,16,29.40
2021,08,11,16,17,29.40
2021,08,11,16,18,29.30
2021,08,11,16,19,29.30
2021,08,11,16,20,29.40
2021,08,11,16,21,29.40
2021,08,11,16,22,29.40
2021,08,11,16,23,29.50
2021,08,11,16,24,29.40
2021,08,11,16,25,29.30
2021,08,11,16,26,29.30
2021,08,11,16,27,29.30
2021,08,11,16,28,29.30
2021,08,11,16,29,29.30
2021,08,11,16,30,29.20
2021,08,11,16,31,29.20
2021,08,11,16,32,29.30
2021,08,11,16,33,29.30
2021,08,11,16,34,29.30
2021,08,11,16,35,29.40
2021,08,11,16,36,29.40
2021,08,11,16,37,29.30
2021,08,11,16,38,29.30
2021,08,11,16,39,29.30
2021,08,11,16,40,29.30
2021,08,11,16,41,29.30
2021,08,11,16,42,29.40
2021,08,11,16,43,29.40
2021,08,11,16,44,29.50
2021,08,11,16,45,29.40
2021,08,11,16,46,29.40
2021,08,11,16,47,29.40
2021,08,11,16,48,29.30
2021,08,11,16,49,29.30
2021,08,11,16,50,29.40
2021,08,11,16,51,29.40
2021,08,11,16,52,29.40
2021,08,11,16,53,29.40
2021,08,11,16,54,29.30
2021,08,11,16,55,29.20
2021,08,11,16,56,29.20
2021,08,11,16,57,29.10
2021,08,11,16,58,29.10
2021,08,11,16,59,29.10
2021,08,11,17,00,29.20
2021,08,11,17,01,29.30
2021,08,11,17,02,29.30
2021,08,11,17,03,29.40
2021,08,11,17,04,29.40
2021,08,11,17,05,29.50
2021,08,11,17,06,29.50
2021,08,11,17,07,29.60
2021,08,11,17,08,29.70
2021,08,11,17,09,29.70
2021,08,11,17,10,29.70
2021,08,11,17,11,29.70
2021,08,11,17,12,29.70
2021,08,11,17,13,29.70
2021,08,11,17,14,29.60
2021,08,11,17,15,29.60
2021,08,11,17,16,29.70
2021,08,11,17,17,29.80
2021,08,11,17,18,29.80
2021,08,11,17,19,29.90